1245 Commits

Author SHA1 Message Date
crschnick 6d748b24e6 Properly work around windows terminal elevation issues 2024-10-18 15:11:58 +00:00
crschnick aae09c255f [release] 2024-10-17 15:32:57 +00:00
crschnick 01bac9d5fa [release] 2024-10-17 11:31:36 +00:00
crschnick f0fe0d7a6e Reformat 2024-10-17 09:41:41 +00:00
crschnick c084a55d15 Logging fixes 2024-10-17 08:21:57 +00:00
crschnick 1dd08fce8d Improve report contact field 2024-10-17 08:21:07 +00:00
crschnick 8a964cadad Logging fixes 2024-10-16 14:31:43 +00:00
crschnick 63bef7161a Script adjustments for bsd 2024-10-16 14:13:59 +00:00
crschnick e80cf7e4b0 Improve windows terminal missing error message 2024-10-16 14:13:52 +00:00
crschnick 411e9c17b6 Update selfhst images 2024-10-16 09:50:22 +00:00
crschnick 3f61701132 Expect first shell failure 2024-10-14 05:14:21 +00:00
crschnick fe7dd6aa71 Make logs a pro feature 2024-10-14 05:14:12 +00:00
crschnick 0b9c62b285 Fix some logging issues 2024-10-13 09:09:25 +00:00
crschnick 4b297f1ce8 Fix script command 2024-10-13 08:42:20 +00:00
crschnick e894390124 Reformat 2024-10-13 08:35:13 +00:00
crschnick d4ad1d2e82 Add logging 2024-10-13 08:31:37 +00:00
crschnick bd06633931 Fixes for potential stack overflow 2024-10-13 05:40:45 +00:00
crschnick 62cb424040 Don't set up desktop integration if platform doesn't work 2024-10-13 04:24:26 +00:00
crschnick 9dc5cf8048 Fix for blank paths in file browser 2024-10-13 04:24:10 +00:00
crschnick a7a3b22dcd Fix no such file exception 2024-10-11 06:00:59 +00:00
crschnick 89885c11b8 Show empty script action in browser 2024-10-10 15:07:20 +00:00
crschnick 2680066c7f Small file transfer fixes [stage] 2024-10-10 06:51:47 +00:00
crschnick fd3c6f034c Add keeper password manager template 2024-10-10 04:09:05 +00:00
crschnick 99999eeaec Add way to duplicate files 2024-10-10 04:08:36 +00:00
crschnick 60e0b124db [stage] 2024-10-09 12:30:13 +00:00
crschnick b35b63708d Add new rename file conflict action 2024-10-09 12:15:27 +00:00
crschnick 7f334c21e9 Fix progress being wrong for files < 1kb 2024-10-09 10:45:33 +00:00
crschnick aa62161b8f Improve some error messages 2024-10-09 10:27:08 +00:00
crschnick 2db320e1bd FIx macOS fallback shell triggering too often 2024-10-09 10:26:56 +00:00
crschnick c2427da60d Fix platform preferences exception not being caught 2024-10-09 10:26:27 +00:00
crschnick a77f1b5fb6 Check if file has been deleted during transfer 2024-10-09 10:26:11 +00:00
crschnick e7c7886cba Remove drop shadows for tooltips in performance mode 2024-10-09 06:30:16 +00:00
crschnick 10ae05f887 Fix update read key syntax 2024-10-09 06:29:58 +00:00
crschnick bfd583e325 Report system fallback shell 2024-10-09 06:29:36 +00:00
crschnick 531d019b54 Fix issue with invalid storage dir 2024-10-08 00:38:05 +00:00
crschnick 99d867965b Various small fixes 2024-10-06 23:38:50 +00:00
crschnick f13eac1c75 Small browser fixes 2024-10-06 00:15:08 +00:00
crschnick 8c6333beb9 Add compress action 2024-10-05 02:53:13 +00:00
crschnick a565c795cf Fix category move updates 2024-10-04 16:53:55 +00:00
crschnick c72ed034d1 Small fixes 2024-10-04 00:21:38 +00:00
crschnick be464120fa Category display fixes 2024-10-03 20:51:02 +00:00
crschnick 48523690b7 File choice fixes 2024-10-02 18:54:33 +00:00
crschnick a97fd10e9c Small fixes 2024-10-02 14:35:03 +00:00
crschnick 0283c6508f Add chooser for git synced key files 2024-10-02 12:06:55 +00:00
crschnick cac46dc026 Prevent potential NPEs 2024-10-01 16:35:30 +00:00
crschnick 671270ce40 Fix NPE 2024-10-01 16:13:21 +00:00
crschnick dbea577662 Merge branch icons into master [release] 2024-10-01 10:29:31 +00:00
crschnick 19b341d848 Improve default terminal order 2024-09-15 07:22:27 +00:00
crschnick c430d9857c Fix vscode it not opening in containers 2024-09-15 07:22:11 +00:00
crschnick 7b601b8917 Fix downloads move not replacing files 2024-09-14 20:16:22 +00:00